Tracking 30995 objects as of 6-Jul-2025
HD Live streaming from Space Station
objects crossing your sky now

STARLINK-1928

Track STARLINK-1928 now!
10-day predictions
STARLINK-1928 is classified as:


NORAD ID: 46758
Int'l Code: 2020-074V
Perigee: 553.4 km
Apogee: 555.3 km
Inclination: 53.1 °
Period: 95.6 minutes
Semi major axis: 6925 km
RCS: Unknown
Launch date: October 24, 2020
Source: United States (US)
Launch site: AIR FORCE EASTERN TEST RANGE (AFETR)
Your satellite tracking list
Your tracking list is empty




NASA's NSSDC Master Catalog

Two Line Element Set (TLE):
1 46758U 20074V   25186.84837954  .00000526  00000-0  54183-4 0  9991
2 46758  53.0562 354.7323 0001351  94.1553 265.9590 15.06400557259428
Source of the keplerian elements: AFSPC